Location: Haliburton Scout Reserve
(45.0900°N, 78.3200°W)
Time: 14:25:53
(UTC-04:00)

FALCONSAT 3 - Visible Passes

Search period start: 16 May 2022 00:00
Search period end: 26 May 2022 00:00
Orbit: 412 x 415 km, 35.4° (Epoch: 15 May)

Date Brightness Start Highest point End Pass type
(mag) Time Alt. Az. Time Alt. Az. Time Alt. Az.
16 May ? 22:01:18 10° SSW 22:03:11 15° S 22:03:11 15° S visible
17 May ? 21:10:38 10° SSW 21:12:33 14° S 21:14:27 10° SE visible
17 May ? 22:47:45 10° SW 22:47:46 10° SW 22:47:46 10° SW visible
18 May ? 21:56:43 10° SW 21:58:50 16° S 21:59:23 15° S visible
20 May ? 21:52:20 10° SW 21:53:56 13° SSW 21:54:54 12° S visible
